Zurück zum Katalog

GJZ 03

AktivMilitärLEO
NORAD 62292·PAYLOAD·🇨🇳 China

Gestartet Dec 12, 2024 von Jiuquan Satellite Launch Center

Loading…

Nächste Überflüge (nächste 24 Stunden)

TLE

AktuellSource: Space-Track

Epoche: Sep 14, 2026, 15:00 UTC

1 62292U 24238C   26257.62560807 -.00000052  00000-0  69772-4 0  9999
2 62292  59.9158   0.2972 0025636  60.0306 300.3242 13.75216195 88197

Verfolge GJZ 03 in Echtzeit mit AllMySat

Download on the App Store